Севериновка

Украина / Одесская область     46°47′52″N   30°36′26″E
темп.,
°C
ветер,
м/с
пор.,
м/с
влажн.,
%
обл.,
%
осадки,
мм/ч
давл.,
гПа
погр.,
м
2 марта, вт
вт200:00+2с4777100 0.1 1032549
03:00+1с3681100 0.1 1033320
06:000сз358392 0.0 1032141
09:00+1зсз237456 0.0 1032142
12:00+5зсз456024 0.0 1030970
15:00+8з685618 0.0 1028926
18:00+8з5106185 0.0 1025788
21:00+6з5147250 0.0 1025391
3 марта, ср
ср300:00+5сз5147629 0.0 1025494
03:00+4с7108039 0.0 1026879
06:00+4с5973100 0.0 1027984
09:00+4ссз5106871 0.0 1029617
12:00+7ссз57580 0.0 10291056
15:00+9ссз45420 0.0 10291274
18:00+8сз354952 0.0 1028438
21:00+5зсз225972 0.0 102822
4 марта, чт
чт400:00+4зюз226217 0.0 102722
03:00+3юз34658 0.0 102637
06:00+2ююз34730 0.0 102368
09:00+4юз510810 0.0 1022294
12:00+10юз710590 0.0 1019701
15:00+13юз710510 0.0 1017994
18:00+12юз495557 0.0 1014366
21:00+7ююз467529 0.0 1014126
5 марта, пт
пт500:00+6юз35831 0.0 101495
03:00+5юз238517 0.0 101325
06:00+5ю238292 0.0 101225
09:00+6ююз348196 0.0 1012125
12:00+11юз4554100 0.0 1011430
15:00+15з343881 0.0 1010971
18:00+13с354711 0.0 1010166
21:00+9ссв4106916 0.0 1011250
6 марта, сб
сб600:00+6ссв368673 0.0 1013191
03:00+6с488786 0.0 1014409
06:00+4с71088100 0.3 1016479
09:00+2ссв81267100 0.6 1019795
12:00+4с81045100 0.0 10211267
15:00+4с7945100 0.0 10221495
18:00+3с7937100 0.0 10241694
21:000ссз375050 0.0 1026174